TimeCST,TemperatureF,Dew PointF,Humidity,Sea Level PressureIn,VisibilityMPH,Wind Direction,Wind SpeedMPH,Gust SpeedMPH,PrecipitationIn,Events,Conditions,WindDirDegrees,DateUTC
12:05 AM,30.2,26.6,86,30.35,3.0,NNW,11.5,-,0.00,Snow,Light Snow,330,2013-02-16 06:05:00
12:28 AM,30.2,26.6,86,30.34,2.0,NNW,10.4,-,0.00,Snow,Light Snow,330,2013-02-16 06:28:00
12:37 AM,30.2,26.6,86,30.34,9.0,NW,9.2,-,0.00,,Overcast,320,2013-02-16 06:37:00
12:52 AM,30.0,25.0,82,30.36,10.0,NW,4.6,-,0.00,,Mostly Cloudy,310,2013-02-16 06:52:00
1:52 AM,28.9,21.0,72,30.36,10.0,NW,8.1,-,N/A,,Clear,320,2013-02-16 07:52:00
3:52 AM,27.0,18.0,69,30.35,10.0,NW,13.8,-,N/A,,Clear,310,2013-02-16 09:52:00
4:52 AM,25.0,18.0,75,30.37,10.0,NW,9.2,-,N/A,,Clear,310,2013-02-16 10:52:00
5:52 AM,24.1,17.1,75,30.37,10.0,NW,8.1,-,N/A,,Clear,320,2013-02-16 11:52:00
6:52 AM,21.9,17.1,82,30.38,10.0,North,6.9,-,N/A,,Clear,10,2013-02-16 12:52:00
7:52 AM,23.0,18.0,81,30.39,10.0,WNW,4.6,-,N/A,,Clear,300,2013-02-16 13:52:00
8:52 AM,26.1,19.0,75,30.40,10.0,WNW,9.2,-,N/A,,Clear,300,2013-02-16 14:52:00
9:52 AM,28.9,21.0,72,30.40,10.0,WNW,5.8,-,N/A,,Clear,290,2013-02-16 15:52:00
10:52 AM,30.9,21.9,69,30.39,10.0,SW,5.8,-,N/A,,Overcast,220,2013-02-16 16:52:00
11:52 AM,34.0,18.0,52,30.34,10.0,Variable,4.6,-,N/A,,Clear,0,2013-02-16 17:52:00
12:52 PM,37.0,18.0,46,30.29,10.0,South,9.2,-,N/A,,Overcast,190,2013-02-16 18:52:00
1:52 PM,37.9,16.0,41,30.26,10.0,South,10.4,-,N/A,,Overcast,180,2013-02-16 19:52:00
2:52 PM,37.9,15.1,39,30.22,10.0,SSE,13.8,-,N/A,,Overcast,160,2013-02-16 20:52:00
3:52 PM,39.9,17.1,40,30.20,10.0,South,15.0,20.7,N/A,,Overcast,170,2013-02-16 21:52:00
4:52 PM,41.0,12.9,32,30.20,10.0,South,15.0,21.9,N/A,,Overcast,190,2013-02-16 22:52:00
5:52 PM,37.9,16.0,41,30.18,10.0,SSE,9.2,-,N/A,,Clear,160,2013-02-16 23:52:00
6:52 PM,35.1,16.0,46,30.17,10.0,SSE,9.2,-,N/A,,Clear,150,2013-02-17 00:52:00
7:52 PM,34.0,17.1,50,30.16,10.0,SE,9.2,-,N/A,,Scattered Clouds,140,2013-02-17 01:52:00
8:52 PM,34.0,18.0,52,30.14,10.0,SSE,13.8,-,N/A,,Clear,150,2013-02-17 02:52:00
9:52 PM,33.1,17.1,52,30.14,10.0,SE,6.9,-,N/A,,Clear,140,2013-02-17 03:52:00
10:52 PM,32.0,17.1,54,30.12,10.0,SE,6.9,-,N/A,,Clear,130,2013-02-17 04:52:00
11:52 PM,30.9,17.1,57,30.10,10.0,SE,6.9,-,N/A,,Clear,140,2013-02-17 05:52:00